User: anonymous   Login
Location: Unspecified
(0.0000°N, 0.0000°E)
Time: 06:58:24
(UTC+00:00)
Language:

Nimbus 3 - Orbit

View from above orbital plane
View from above orbital plane
View from above satellite
View from above satellite

Ground track
Ground track

The orbit data is extracted from the following two-line orbital elements,

1  3890U 69037A   17202.78106226 -.00000039 +00000-0 +94743-5 0  9994
2  3890 099.9449 113.1087 0039149 327.6697 105.3260 13.42513158364343
Epoch (UTC): 21 July 2017 18:44:43
Eccentricity: 0.0039149
inclination: 99.9449°
perigee height: 1070 km
apogee height: 1129 km
right ascension of ascending node: 113.1087°
argument of perigee: 327.6697°
revolutions per day: 13.42513158
mean anomaly at epoch: 105.3260°
orbit number at epoch: 36434

The dashed part of the orbit path shows where the satellite is in the earth's shadow,  

DLR